Home   Weather   Walvis Bay   Past weeks

Flag for Namibia Past Weather in Walvis Bay, Namibia — Yesterday and Last 2 Weeks

Now
66 °F

Sunny.


Feels Like: 66 °F
Forecast: 69 / 74 °F
Wind: 3 mph from Southeast

Location: Windhoek

Current Time: Jan 18, 2017 at 8:02:55 am

Latest Report: Jan 18, 2017 at 7:00 am


Visibility: 10 mi

Pressure: 30.18 "Hg

Humidity: 73%

Dew Point: 57 °F

Location of Walvis BayLocation

Past Weather in Walvis Bay — Graph

°F

Walvis Bay Temperature Yesterday

Maximum temperature yesterday: 91 °F (at 3:00 pm)
Minimum temperature yesterday: 70 °F (at 4:00 am)
Average temperature yesterday: 80 °F

High & Low Weather Summary for the Past Weeks

 TemperatureHumidityPressure
High91 °F (Jan 16, 3:00 pm)94% (Jan 11, 7:00 pm)30.21 "Hg (Jan 11, 7:00 pm)
Low63 °F (Jan 6, 5:00 am)12% (Jan 17, 4:00 pm)29.92 "Hg (Jan 10, 6:00 pm)
Average74 °F50%30.07 "Hg
* Reported Jan 3 5:00 am — Jan 18 5:00 am, Walvis Bay, Weather by CustomWeather, © 2017

Note: Actual official high and low records may vary slightly from our data, if they occured in-between our weather recording intervals... More about our weather records

Advertising

Walvis Bay Weather History for the Previous 24 Hours

Scroll right to see more
 ConditionsComfort  
Time TempWeatherWind HumidityBarometerVisibility
5:00 am
Wed, Jan 18
66 °FMild.5 mph68%30.15 "HgN/A
4:00 am66 °FMild.3 mph64%30.12 "HgN/A
3:00 am68 °FMild.2 mph64%30.12 "HgN/A
2:00 am70 °FMild.5 mph53%30.12 "HgN/A
1:00 am70 °FMild.9 mph53%30.12 "HgN/A
12:00 am72 °FMild.7 mph50%30.12 "HgN/A
11:00 pm
Tue, Jan 17
73 °FMild.5 mph29%30.12 "HgN/A
10:00 pm79 °FPleasantly warm.5 mph23%30.12 "HgN/A
9:00 pm79 °FPleasantly warm.2 mph21%30.09 "HgN/A
7:00 pm86 °FSunny.9 mph15%30.07 "Hg10 mi
6:00 pm88 °FPassing clouds.8 mph15%30.04 "HgN/A
5:00 pm90 °FPassing clouds.7 mph13%30.04 "HgN/A
4:00 pm91 °FPassing clouds.9 mph12%30.07 "HgN/A
3:00 pm91 °FPassing clouds.7 mph13%30.07 "HgN/A
2:00 pm90 °FPassing clouds.6 mph15%30.09 "HgN/A
1:00 pm90 °FPassing clouds.9 mph16%30.12 "HgN/A
10:00 am82 °FSunny.9 mph21%30.12 "Hg10 mi
9:00 am79 °FSunny.10 mph26%30.12 "Hg10 mi
Weather by CustomWeather, © 2017

See weather overviewHow to use our weather pages